Location: Bonny Doon Airfield
(37.0704°N, 122.1252°W)
Time: 11:41:31
(UTC-07:00)

Hubble Space Telescope - Visible Passes

Search period start: 19 March 2019 00:00
Search period end: 29 March 2019 00:00
Orbit: 537 x 540 km, 28.5° (Epoch: 18 March)

Date Brightness Start Highest point End Pass type
(mag) Time Alt. Az. Time Alt. Az. Time Alt. Az.
23 Mar 3.4 21:23:33 10° SSW 21:23:46 11° SSW 21:23:46 11° SSW visible
24 Mar 2.9 21:12:44 10° SW 21:14:11 16° SSW 21:14:11 16° SSW visible
25 Mar 2.5 21:01:59 10° SW 21:04:32 20° S 21:04:32 20° S visible
26 Mar 2.2 20:51:18 10° SW 20:54:34 23° S 20:54:49 22° SSE visible
27 Mar 2.2 20:40:39 10° SW 20:44:00 24° S 20:45:02 21° SSE visible
28 Mar 2.2 20:30:03 10° SW 20:33:26 24° S 20:35:13 18° SE visible
